This is the latest recevied weather packets stored in our database for station/object R8AHC-W5. If no packets are shown the sender has not sent any weather packets the latest 10 day(s).
| Time | Temp. | Humidity | Pressure | Rain* | Wind** | Luminosity | Snow |
|---|---|---|---|---|---|---|---|
| 1777647303 | 6.11° C | 83% | 1012 hPa | - | 6.26 m/s, 306° | - | - |
| 1777643702 | 5.56° C | 89% | 1011 hPa | - | 6.71 m/s, 312° | - | - |
| 1777640102 | 5° C | 96% | 1011 hPa | - | 6.71 m/s, 303° | - | - |
| 1777636502 | 4.44° C | 96% | 1010 hPa | - | 7.6 m/s, 311° | - | - |
| 1777632901 | 5.56° C | 94% | 1008 hPa | - | 8.05 m/s, 315° | - | - |
| 1777629302 | 6.11° C | 92% | 1007 hPa | - | 8.05 m/s, 325° | - | - |
| 1777625701 | 7.22° C | 93% | 1006 hPa | - | 6.71 m/s, 334° | - | - |
| 1777622102 | 7.22° C | 93% | 1006 hPa | - | 4.92 m/s, 347° | - | - |
| 1777618502 | 7.78° C | 94% | 1005 hPa | - | 4.92 m/s, 6° | - | - |
| 1777614901 | 7.22° C | 95% | 1005 hPa | - | 5.81 m/s, 20° | - | - |
| 1777607701 | 7.22° C | 95% | 1007 hPa | - | 7.15 m/s, 21° | - | - |
| 1777604102 | 7.22° C | 95% | 1007 hPa | - | 7.15 m/s, 20° | - | - |
| 1777600503 | 7.22° C | 96% | 1008 hPa | - | 7.15 m/s, 22° | - | - |
| 1777596902 | 7.22° C | 96% | 1008 hPa | - | 7.6 m/s, 22° | - | - |
| 1777593301 | 7.78° C | 96% | 1009 hPa | - | 6.26 m/s, 31° | - | - |
| 1777589702 | 7.78° C | 95% | 1010 hPa | - | 6.26 m/s, 30° | - | - |
| 1777586101 | 8.33° C | 95% | 1010 hPa | - | 7.15 m/s, 28° | - | - |
| 1777582502 | 8.89° C | 96% | 1011 hPa | - | 6.26 m/s, 28° | - | - |
| 1777578902 | 8.89° C | 95% | 1012 hPa | - | 5.81 m/s, 27° | - | - |
| 1777575302 | 8.89° C | 95% | 1013 hPa | - | 5.81 m/s, 27° | - | - |
| 1777571702 | 8.89° C | 95% | 1013 hPa | - | 5.81 m/s, 32° | - | - |
| 1777568101 | 8.33° C | 95% | 1014 hPa | - | 5.36 m/s, 46° | - | - |
| 1777564502 | 8.89° C | 94% | 1015 hPa | - | 5.36 m/s, 46° | - | - |
| 1777560902 | 8.89° C | 93% | 1016 hPa | - | 4.92 m/s, 45° | - | - |
| 1777557302 | 8.89° C | 91% | 1017 hPa | - | 4.47 m/s, 55° | - | - |
* Rain since midnight (hover to see other rain measurements)
** Current wind speed in m/s (hover to see current wind gust speed)